Location: Angwan Shehu
(11.2514°N, 7.4613°E)
Time: 22:15:38
(UTC+00:00)

Vanguard 3 - Pass Details

Date: 06 August 2021
Orbit: 510 x 3260 km, 33.3° (Epoch: 18 September)

Event Time Altitude Azimuth Distance (km) Brightness Sun altitude
Rises 00:15:54 0° 295° (WNW) 7,224 12.0 -60.4°
Reaches altitude 10° 00:21:10 10° 290° (WNW) 6,141 11.5 -59.9°
Enters shadow 00:23:55 16° 287° (WNW) 5,572 11.2 -59.7°
